Weather in Derry

United Kingdom     55°01′47″N   7°17′19″W
temp.,
°C
wind,
m/s
gust,
m/s
humid.,
%
clouds,
%
prec.,
mm/h
press.,
hPa
HPBL,
m
13 april, tue
tue1301:00+2ssw119766 0.1 103116
04:00+1sw2297100 0.0 103231
07:00+1ssw229718 0.0 103239
10:00+6sw238797 0.0 1032328
13:00+10wnw236498 0.4 10321143
16:00+10nw347074 1.2 10321094
19:00+8nnw35715 1.4 1032548
22:00+3w00950 0.0 103410
14 april, wed
wed1401:00+2sw11965 0.0 103410
04:00+1s11975 0.0 103410
07:00+1ssw10965 0.0 103410
10:00+8ese01745 0.0 1035419
13:00+13ese015267 0.0 10341558
16:00+10e2365100 0.1 1033321
19:00+9ene237792 0.1 1033190
22:00+4ese11948 0.0 103410
15 april, thu
thu1501:00+3sse119517 0.0 103412
04:00+2sse119568 0.0 103412
07:00+1sse11945 0.0 103414
10:00+8sse366459 0.0 1033647
13:00+11sse565156 0.0 10331342
16:00+13s564821 0.0 10311705
19:00+10se57675 0.0 1030827
22:00+5sse3118312 0.0 1031357
16 april, fri
fri1601:00+2se249044 0.0 103180
04:00+1se249576 0.0 103092
07:00+3sse21185100 0.0 1030427
10:00+7s51167100 0.0 1030750
13:00+10s575387 0.0 10291225
16:00+11s4752100 0.0 10281458
19:00+10sse4766100 0.0 1027888
22:00+6se31182100 0.0 1028368
17 april, sat
sat1701:00+5sse31185100 0.0 1027486
04:00+5sse51382100 0.0 1025686
07:00+1se2990100 0.0 1027246
10:00+4sse51496100 3.9 1023769
13:00+5sse61494100 6.1 1022900
16:00+6sse61492100 1.1 1020907
19:00+6sse71593100 1.9 1018865
22:00+6sse61594100 2.0 1017868